Location: Katherine
(14.4670°S, 132.2670°E)
Time: 00:16:39
(UTC+09:30)

ISS - Pass Details

Date: 17 July 2018
Orbit: 402 x 408 km, 51.6° (Epoch: 20 July)

Event Time Altitude Azimuth Distance (km) Brightness Sun altitude
Rises 19:30:35 0° 222° (SW) 2,322 0.3 -15.1°
Reaches altitude 10° 19:32:41 10° 226° (SW) 1,458 -0.7 -15.6°
Maximum altitude 19:35:55 60° 306° (NW) 464 -3.3 -16.3°
Drops below altitude 10° 19:39:06 10° 27° (NNE) 1,445 -1.1 -17.1°
Enters shadow 19:40:21 - 30° (NNE) 1,952 -0.5 -17.3°
